Date String (YYYY-MM-DD hh:mm:ss) UTC,Instrument flags,absolute air pressure of the measurement (hPa),sample flow rate (lpm),inlet stack bypass flow (lpm),air temperature of the measurement (°C),ambient temperature measured by the external sensor (°C),aerosol sample conditioner tube jacket temperature (°C),OPC LED temperature (°C),internal box temperature (°C),relative humidity of the measurement (%),span deviation,mass concentration of particles derived from Lorenz-Mie calculation of OPC scattering (μg/m³),mass concentration of particles derived from Lorenz-Mie calculation of OPC scattering (μg/m³),mass concentration of particles derived from Lorenz-Mie calculation of OPC scattering (μg/m³)
DateTimeUTC,F1_M11,P_M11,Q1_M11,Q2_M11,T1_M11,T2_M11,T3_M11,T4_M11,T5_M11,U1_M11,ZSPAN_M11,X0_M11,X2_M11,X1_M11
2023-12-04 08:00:00,SystemResetWarning,0825.1,5.01,000.00,019.1,018.7,000.0,027.3,020.4,13.5,0000.0,0008.17,0003.44,0002.89
2023-12-04 08:01:00,SystemResetWarning,0825.2,5.01,000.00,019.1,018.6,000.0,027.3,020.3,13.5,0000.0,0008.18,0003.45,0002.90
2023-12-04 08:02:00,SystemResetWarning,0825.3,4.99,000.00,019.1,018.5,000.0,027.3,020.2,13.5,0000.0,0008.23,0003.47,0002.92
2023-12-04 08:03:00,SystemResetWarning,0825.2,4.99,000.00,019.0,018.4,000.0,027.3,020.2,13.6,0000.0,0008.30,0003.49,0002.94
2023-12-04 08:04:00,SystemResetWarning,0825.3,5.01,000.00,019.0,018.4,000.0,027.3,020.2,13.5,0000.0,0007.85,0003.53,0002.96
2023-12-04 08:05:00,SystemResetWarning,0825.4,5.01,000.00,019.0,018.3,000.0,027.3,020.1,13.5,0000.0,0007.73,0003.53,0002.97
2023-12-04 08:06:00,SystemResetWarning,0825.4,5.00,000.00,019.0,018.2,000.0,027.3,020.1,13.6,0000.0,0007.61,0003.49,0002.96
2023-12-04 08:07:00,SystemResetWarning,0825.5,4.99,000.00,018.9,018.2,000.0,027.3,020.1,13.6,0000.0,0007.57,0003.47,0002.94
2023-12-04 08:08:00,SystemResetWarning,0825.5,4.99,000.00,018.9,018.1,000.0,027.3,020.0,13.7,0000.0,0007.39,0003.37,0002.89
2023-12-04 08:09:00,SystemResetWarning,0825.1,5.00,000.00,018.9,018.1,000.0,027.3,020.0,13.8,0000.0,0006.78,0003.32,0002.83
2023-12-04 08:10:00,SystemResetWarning,0825.1,5.00,000.00,018.9,018.1,000.0,027.3,020.1,13.4,0000.0,0006.07,0003.26,0002.80
2023-12-04 08:11:00,SystemResetWarning,0825.1,5.02,000.00,019.0,018.5,000.0,027.3,020.7,13.3,0000.0,0005.42,0003.23,0002.78
2023-12-04 08:12:00,SystemResetWarning,0825.1,4.99,000.00,019.1,019.2,000.0,027.3,021.2,13.1,0000.0,0005.70,0003.21,0002.76
2023-12-04 08:13:00,SystemResetWarning,0825.2,4.99,000.00,019.3,019.4,000.0,027.4,021.0,12.9,0000.0,0005.93,0003.20,0002.74
2023-12-04 08:14:00,SystemResetWarning,0825.4,5.02,000.00,019.2,019.2,000.0,027.4,020.7,12.9,0000.0,0006.05,0003.22,0002.73
2023-12-04 08:15:00,SystemResetWarning,0825.4,5.00,000.00,019.2,019.1,000.0,027.4,020.5,13.1,0000.0,0006.00,0003.23,0002.73
2023-12-04 08:16:00,SystemResetWarning,0825.5,4.99,000.00,019.2,019.0,000.0,027.4,020.5,13.1,0000.0,0006.03,0003.23,0002.73
2023-12-04 08:17:00,SystemResetWarning,0825.4,4.99,000.00,019.2,018.9,000.0,027.4,020.4,13.1,0000.0,0006.48,0003.22,0002.72
2023-12-04 08:18:00,SystemResetWarning,0825.1,5.00,000.00,019.2,018.7,000.0,027.4,020.3,13.2,0000.0,0006.55,0003.22,0002.71
2023-12-04 08:19:00,SystemResetWarning,0825.4,5.01,000.00,019.2,018.8,000.0,027.4,020.7,13.3,0000.0,0006.47,0003.25,0002.74
2023-12-04 08:20:00,SystemResetWarning,0825.4,5.01,000.00,019.3,019.4,000.0,027.5,021.2,13.3,0000.0,0006.59,0003.27,0002.76
2023-12-04 08:21:00,SystemResetWarning,0825.5,4.99,000.00,019.4,019.5,000.0,027.5,021.1,13.2,0000.0,0007.11,0003.27,0002.76
2023-12-04 08:22:00,SystemResetWarning,0825.6,5.00,000.00,019.4,019.4,000.0,027.5,020.9,13.2,0000.0,0007.20,0003.28,0002.75
2023-12-04 08:23:00,SystemResetWarning,0825.6,5.01,000.00,019.4,019.2,000.0,027.5,020.7,13.2,0000.0,0006.96,0003.30,0002.77
2023-12-04 08:24:00,SystemResetWarning,0825.4,5.01,000.00,019.4,019.1,000.0,027.5,020.5,13.1,0000.0,0006.83,0003.34,0002.78
2023-12-04 08:25:00,SystemResetWarning,0825.5,5.00,000.00,019.3,018.9,000.0,027.5,020.5,13.0,0000.0,0007.02,0003.35,0002.79
2023-12-04 08:26:00,SystemResetWarning,0825.7,4.99,000.00,019.3,018.8,000.0,027.5,020.4,13.0,0000.0,0007.09,0003.32,0002.78
2023-12-04 08:27:00,SystemResetWarning,0825.7,5.00,000.00,019.3,018.8,000.0,027.5,020.4,13.0,0000.0,0006.87,0003.30,0002.79
2023-12-04 08:28:00,SystemResetWarning,0825.6,5.00,000.00,019.3,018.7,000.0,027.5,020.3,13.1,0000.0,0006.41,0003.34,0002.83
2023-12-04 08:29:00,SystemResetWarning,0825.6,4.99,000.00,019.2,018.6,000.0,027.5,020.3,13.2,0000.0,0006.22,0003.32,0002.81
2023-12-04 08:30:00,SystemResetWarning,0825.6,5.01,000.00,019.3,018.9,000.0,027.5,020.9,13.2,0000.0,0006.25,0003.31,0002.79
2023-12-04 08:31:00,SystemResetWarning,0825.4,5.01,000.00,019.4,019.4,000.0,027.6,021.3,13.1,0000.0,0006.00,0003.30,0002.75
2023-12-04 08:32:00,SystemResetWarning,0825.5,5.00,000.00,019.5,019.4,000.0,027.6,021.0,13.0,0000.0,0005.70,0003.30,0002.74
2023-12-04 08:33:00,SystemResetWarning,0825.6,4.98,000.00,019.4,019.3,000.0,027.6,020.8,13.1,0000.0,0006.03,0003.28,0002.70
2023-12-04 08:34:00,SystemResetWarning,0825.6,4.99,000.00,019.4,019.2,000.0,027.6,020.6,13.2,0000.0,0006.46,0003.23,0002.64
2023-12-04 08:35:00,SystemResetWarning,0825.7,5.01,000.00,019.4,019.0,000.0,027.6,020.5,13.2,0000.0,0006.27,0003.16,0002.58
2023-12-04 08:36:00,SystemResetWarning,0825.7,5.01,000.00,019.4,018.9,000.0,027.6,020.5,13.1,0000.0,0006.57,0003.11,0002.54
2023-12-04 08:37:00,SystemResetWarning,0825.4,4.99,000.00,019.3,018.8,000.0,027.6,020.5,13.0,0000.0,0006.94,0003.04,0002.48
2023-12-04 08:38:00,SystemResetWarning,0825.3,4.99,000.00,019.3,018.8,000.0,027.6,020.4,13.1,0000.0,0006.89,0003.00,0002.42
2023-12-04 08:39:00,SystemResetWarning,0825.3,5.00,000.00,019.3,018.7,000.0,027.6,020.4,13.2,0000.0,0006.84,0002.92,0002.38
2023-12-04 08:40:00,SystemResetWarning,0825.3,5.00,000.00,019.3,018.7,000.0,027.6,020.4,13.2,0000.0,0006.79,0002.88,0002.34
2023-12-04 08:41:00,SystemResetWarning,0825.4,5.01,000.00,019.3,018.6,000.0,027.6,020.3,13.2,0000.0,0006.69,0002.87,0002.32
2023-12-04 08:42:00,SystemResetWarning,0825.5,5.00,000.00,019.2,018.5,000.0,027.6,020.3,13.3,0000.0,0006.79,0002.90,0002.30
2023-12-04 08:43:00,SystemResetWarning,0825.6,5.00,000.00,019.2,018.5,000.0,027.6,020.3,13.3,0000.0,0006.60,0002.87,0002.28
2023-12-04 08:44:00,SystemResetWarning,0825.5,5.00,000.00,019.2,018.5,000.0,027.6,020.2,13.4,0000.0,0006.07,0002.83,0002.27
2023-12-04 08:45:00,SystemResetWarning,0825.4,4.99,000.00,019.1,018.4,000.0,027.6,020.1,13.4,0000.0,0005.65,0002.86,0002.26
2023-12-04 08:46:00,SystemResetWarning,0825.4,4.99,000.00,019.1,018.3,000.0,027.5,020.0,13.5,0000.0,0006.17,0002.86,0002.26
2023-12-04 08:47:00,SystemResetWarning,0825.3,5.00,000.00,019.1,018.3,000.0,027.5,020.0,13.2,0000.0,0006.48,0002.84,0002.24
2023-12-04 08:48:00,SystemResetWarning,0825.2,5.00,000.00,019.1,018.2,000.0,027.5,020.1,13.2,0000.0,0006.10,0002.89,0002.25
2023-12-04 08:49:00,SystemResetWarning,0825.1,5.00,000.00,019.1,018.2,000.0,027.5,020.1,13.3,0000.0,0006.24,0002.94,0002.25
2023-12-04 08:50:00,SystemResetWarning,0825.2,5.00,000.00,019.0,018.2,000.0,027.5,020.1,13.3,0000.0,0006.20,0002.93,0002.25
2023-12-04 08:51:00,SystemResetWarning,0825.1,5.01,000.00,019.0,018.2,000.0,027.4,020.0,12.8,0000.0,0006.61,0002.95,0002.25
2023-12-04 08:52:00,SystemResetWarning,0825.1,5.00,000.00,019.0,018.2,000.0,027.4,020.1,12.9,0000.0,0007.22,0002.95,0002.25
2023-12-04 08:53:00,SystemResetWarning,0825.2,5.00,000.00,019.0,018.2,000.0,027.4,020.0,13.1,0000.0,0007.04,0002.87,0002.25
2023-12-04 08:54:00,SystemResetWarning,0825.0,5.00,000.00,019.0,018.1,000.0,027.4,020.0,13.2,0000.0,0007.00,0002.84,0002.23
2023-12-04 08:55:00,SystemResetWarning,0825.1,5.00,000.00,019.0,018.1,000.0,027.4,020.0,13.3,0000.0,0007.17,0002.86,0002.21
2023-12-04 08:56:00,SystemResetWarning,0825.3,5.00,000.00,018.9,018.1,000.0,027.4,020.0,13.2,0000.0,0007.22,0002.84,0002.21
2023-12-04 08:57:00,SystemResetWarning,0825.3,5.00,000.00,018.9,018.1,000.0,027.4,020.0,13.2,0000.0,0006.87,0002.84,0002.21
2023-12-04 08:58:00,SystemResetWarning,0825.3,5.00,000.00,018.9,018.1,000.0,027.4,020.0,13.0,0000.0,0006.14,0002.92,0002.22
2023-12-04 08:59:00,SystemResetWarning,0825.4,5.00,000.00,018.9,018.1,000.0,027.3,020.1,13.0,0000.0,0005.73,0002.87,0002.19
